Torna al catalogo

SL-24 R/B

AttivoPO
NORAD 31699·ROCKET BODY·🇷🇺 Russia

Lanciato Jun 15, 2007 da Baikonur Cosmodrome

Loading…

Prossimi Passaggi (prossime 24 ore)

TLE

AggiornatoSource: Space-Track

Epoca: Sep 14, 2026, 07:39 UTC

1 31699U 07026B   26257.31930063  .00000686  00000-0  10223-3 0  9991
2 31699  97.4711 217.3007 0333762  80.2230  78.0327 14.46128072 12418

Traccia SL-24 R/B in tempo reale con AllMySat

Download on the App Store